{"data":{"norad_id":68428,"epoch":"2026-05-24T17:40:31.806336Z","epoch_age_seconds":91633,"freshness":"FRESH","line1":"1 68428U 26067N   26144.73647924  .00003142  00000+0  15654-3 0  9991","line2":"2 68428  97.4559 103.5768 0003570  84.4694 275.6948 15.18295622  8380","mean_motion":15.18295622,"eccentricity":0.000357,"inclination_deg":97.4559,"raan_deg":103.5768,"arg_perigee_deg":84.4694,"mean_anomaly_deg":275.6948,"bstar":0.00015654,"rev_number":838,"period_min":94.84318989889,"perigee_km":508.53201698083,"apogee_km":513.45085468402,"semimajor_km":6889.1284358324,"source":"CELESTRAK","updated_at":"2026-05-25T13:38:07.813777Z"}}